sat.trackr.live / text

‹ back to catalog

STARLINK-5777

NORAD 56027 · 2023-042AT

PAYLOAD ACTIVE UNKNOWN

§ Identity

Operator
Country
US
Launch date
2023-03-24
Launch site
AFETR
Launch vehicle
Mass (kg)
RCS (m²)

Purposes: comms

External: N2YO · Heavens-Above · Gunter

§ Orbital elements

Epoch: 2026-09-20T08:50:20.519520Z

Period
94.27 min
Inclination
43.0030°
Eccentricity
0.0001247
Mean motion
15.27573155 rev/d
Perigee alt
482.2 km
Apogee alt
483.9 km
Semi-major
6,861.2 km
B*
3.8823e-6
RAAN
25.3932°
Arg perigee
268.3564°
Mean anomaly
91.7145°
Rev number
19,281

§ Raw data

STARLINK-57771 56027U 23042AT  26263.36829305 -.00000155  00000+0  38823-5 0  99962 56027  43.0030  25.3932 0001247 268.3564  91.7145 15.27573155192813

JSON: /api/v1/satellites/56027 · /tle

For live sub-satellite position, see the globe view (requires WebGL).

§ Visibility from observer

Set your observer location to see the next 7 days of passes ≥ 10°. The values pass through the URL so the page stays shareable.

No JS? Fill the form by hand. The geolocation button needs JavaScript.